Location: Coll
(42.4728°N, 0.7714°E)
Time: 11:46:40
(UTC+00:00)

Lacrosse 4 Rocket - Pass Details

Date: 23 October 2020
Orbit: 541 x 617 km, 68.0° (Epoch: 01 December)

Event Time Altitude Azimuth Distance (km) Brightness Sun altitude
Exits shadow 03:50:39 14° 148° (SSE) 1,565 3.8 -28.1°
Maximum altitude 03:52:50 21° 108° (ESE) 1,258 3.7 -27.7°
Drops below altitude 10° 03:55:52 10° 59° (ENE) 1,807 4.8 -27.1°
Sets 03:58:27 0° 43° (NE) 2,707 5.6 -26.6°
